Regional Weather Roundup
Issued by NWS

Home | Current Version | Previous Version | Text Only | Print | Product List | Glossary Off
Versions: 1 2 3 4 5 6 7 8 9 10 11 12 13 14 15 16 17 18 19 20 21 22 23 24 25 26 27 28 29 30 31 32 33 34 35 36 37 38 39 40 41 42 43 44 45 46

000
ASUS45 KSLC 302210
RWRUT

UTAH REGIONAL WEATHER ROUNDUP
NATIONAL WEATHER SERVICE SALT LAKE CITY UT
400 PM MDT SUN AUG 30 2015

UTZ001>011-023>025-302300-

NORTHERN UTAH

CITY           SKY/WX    TMP DP  RH WIND       PRES   REMARKS
BRIGHAM CITY   MOSUNNY   87  37  16 W7        29.94F
HILL AFB       MOSUNNY   85  45  25 NW12      29.98F
LOGAN          MOSUNNY   86  41  20 SE6       29.94F
OGDEN          MOSUNNY   86  44  23 NW9       29.94F
PROVO AIRPORT  PTSUNNY   88  48  25 S18G25    29.94F
SALT LAKE CITY PTSUNNY   87  45  23 N8        29.93F
VERNAL         CLOUDY    79  44  28 W13G28    30.05R
WENDOVER       MOSUNNY   88  41  19 E12       29.95F
HEBER CITY     CLOUDY    84  37  18 SW10G22   30.01F
WEST JORDAN    SUNNY     82  46  28 NW9G22    29.97F

$$

UTZ012>022-026-027-302300-

SOUTHERN/CENTRAL UTAH

CITY           SKY/WX    TMP DP  RH WIND       PRES   REMARKS
BLANDING       MOSUNNY   85  44  23 SW7       30.19F
BRYCE CANYON   CLOUDY    71  47  42 W13       30.27S
CEDAR CITY     PTSUNNY   84  40  21 S18G28    30.06F
DELTA          CLOUDY    90  37  15 SW15      29.96F
HANKSVILLE     PTSUNNY   88  46  23 NW16G26   29.97S
MILFORD        CLOUDY    87  43  21 SW23G39   30.00F
MOAB/CYNLANDS  SUNNY     92  48  22 NW12G21   29.95F
PRICE          CLOUDY    73  55  53 NE8       30.10F
ST GEORGE      CLOUDY    99  48  18 W9G22     29.86F HX  95
KANAB          CLOUDY    73  63  68 SE7       30.10F

$$

REGIONAL REPORTS     COLORADO/ARIZONA

CITY           SKY/WX    TMP DP  RH WIND       PRES   REMARKS
CRAIG, CO      MOSUNNY   84  41  21 SW14G22   30.10F
GRAND JUNCTION MOSUNNY   89  44  20 S5        29.99F
RIFLE          LGT RAIN  85  49  28 SE8       30.05F
MONTROSE       PTSUNNY   74  55  51 E14G24    30.13F
CORTEZ         SUNNY     90  42  18 SW15      30.11F
PAGE, AZ       CLOUDY    80  55  42 S13G23    30.03S
GRAND CANYON   CLOUDY    72  54  53 E13G18    30.21F THUNDER
KINGMAN        MOSUNNY   98  48  18 SW22G35   29.94F HX  94
FLAGSTAFF      CLOUDY    73  53  49 W8        30.28S

$$

REGIONAL REPORTS    NEVADA/IDAHO/WYOMING

CITY           SKY/WX    TMP DP  RH WIND       PRES   REMARKS
LAS VEGAS, NV  PTSUNNY  100  38  11 SW20G30   29.78F HX  95
ELY            MOSUNNY   84  25  11 MISG      30.07F
ELKO           MOSUNNY   83  29  14 W18G28    30.03F
POCATELLO, ID  SUNNY     81  40  23 W15G23    29.99F
BURLEY         PTSUNNY   77  38  24 NW14G23   29.97F
EVANSTON, WY   TSTM      71  40  32 SW22G46   30.14S
ROCK SPRINGS   CLOUDY    69  53  56 S12       30.12F
KEMMERER       PTSUNNY   81  32  17 W30G40    30.12F

$$



USA.gov is the U.S. government's official web portal to all federal, state and local government web resources and services.